Flag for Turkey Weather past 2 weeks in Samsun, Turkey

Now
48 °F

Passing clouds.


Feels Like: 48 °F
Forecast: 52 / 74 °F
Wind: 2 mph from North

Location: Samsun / Carsamba

Current Time: Oct 23, 2014 at 2:14:59 AM

Latest Report: Oct 23, 2014 at 1:50 AM


Visibility: N/A

Pressure: 29.83 "Hg

Humidity: 94%

Dew point: 46 °F

Location of SamsunLocation

Historic Weather in Samsun — Graph

°F

Samsun temperature yesterday

Maximum temperature yesterday: 82 °F (at 2:50 PM)
Minimum temperature yesterday: 43 °F (at 2:50 AM)
Average temperature yesterday: 61 °F

Past Weeks' High & Low Weather Summary

 TemperatureHumidityPressure
High82 °F (Oct 22, 2:50 PM)100% (Oct 8, 2:50 AM)30.30 "Hg (Oct 8, 2:50 AM)
Low37 °F (Oct 21, 4:50 AM)20% (Oct 22, 2:50 PM)29.68 "Hg (Oct 18, 11:50 AM)
Average61 °F84%30.03 "Hg
* Reported Oct 8 12:50 AM — Oct 23 12:50 AM, Samsun, Weather by CustomWeather, © 2014

Note: Actual official high and low records may vary slightly from our data, if they occured in-between our weather recording intervals... More about our weather records

Advertising

Samsun weather history for previous 24 hours

 ConditionsComfort  
Time TempWeatherWind HumidityBarometerVisibility
12:50 AM
Oct 23
48 °FPassing clouds.6 mph94%29.83 "HgN/A
11:50 PM
Oct 22
50 °FPassing clouds.3 mph94%29.83 "Hg5 mi
10:50 PM52 °FPassing clouds.3 mph94%29.83 "Hg5 mi
9:50 PM52 °FPassing clouds.No wind94%29.83 "Hg5 mi
8:50 PM54 °FPassing clouds.5 mph88%29.83 "HgN/A
7:50 PM55 °FPassing clouds.1 mph82%29.83 "HgN/A
6:50 PM55 °FPassing clouds.2 mph82%29.83 "HgN/A
5:50 PM66 °FScattered clouds.7 mph56%29.83 "HgN/A
4:50 PM73 °FPassing clouds.5 mph44%29.80 "HgN/A
3:50 PM75 °FSunny.6 mph41%29.80 "Hg10 mi
2:50 PM82 °FSunny.7 mph20%29.83 "Hg10 mi
1:50 PM81 °FSunny.9 mph21%29.83 "Hg10 mi
12:50 PM81 °FSunny.8 mph21%29.83 "Hg10 mi
11:50 AM79 °FSunny.9 mph24%29.86 "Hg10 mi
10:50 AM75 °FSunny.7 mph31%29.86 "Hg10 mi
9:50 AM72 °FSunny.6 mph31%29.86 "Hg10 mi
8:50 AM63 °FSunny.6 mph56%29.86 "Hg10 mi
7:50 AM52 °FClear.3 mph72%29.86 "Hg10 mi
6:50 AM55 °FClear.7 mph55%29.83 "Hg10 mi
5:50 AM54 °FClear.10 mph63%29.83 "Hg10 mi
4:50 AM55 °FPassing clouds.5 mph55%29.83 "HgN/A
3:50 AM54 °FClear.6 mph63%29.83 "Hg10 mi
2:50 AM43 °FClear.5 mph93%29.83 "Hg10 mi
Weather by CustomWeather, © 2014

See weather overviewHow to use our weather pages